Vorticity
nan nan nan nan nan nan nan nan nan nan nan nan nan nan nan nan nan nan nan nan nan nan nan nan nan nan nan nan nan nan nan nan nan nan nan nan nan nan nan nan nan nan nan nan
nan 11 8 6 4 7 6 9 12 4 4 7 4 5 6 9 5 8 9 11 15 12 12 11 12 10 9 10 7 6 7 5 6 3 7 8 10 8 9 9 10 10 7 nan
nan 17 6 6 9 12 5 8 7 7 10 10 11 14 7 8 5 4 4 5 7 11 13 13 14 12 11 9 8 8 8 7 7 5 5 5 9 10 11 10 9 10 8 nan
nan -1 5 9 12 8 16 11 8 8 2 10 9 15 18 3 9 5 6 5 6 8 8 10 12 10 13 16 11 9 10 10 8 9 4 6 4 7 8 11 10 10 12 nan
nan 7 5 5 11 8 13 4 6 8 10 9 8 8 11 10 8 10 5 5 6 6 8 9 10 10 10 10 12 17 17 9 10 9 6 4 2 8 5 6 12 13 11 nan
nan 9 8 10 7 6 2 10 10 9 10 14 13 5 -0 12 16 12 6 5 6 7 8 8 7 6 8 9 8 10 14 16 13 9 11 2 8 7 5 6 6 11 9 nan
nan 4 6 13 9 10 5 8 14 14 7 9 11 4 14 10 6 8 10 7 5 7 8 6 5 6 7 6 7 10 10 11 13 12 8 11 8 9 8 4 8 5 8 nan
nan 14 7 5 4 6 15 13 14 8 4 5 7 16 10 8 10 9 5 7 5 6 3 7 7 6 5 5 7 10 10 11 10 10 11 14 9 8 12 9 7 8 8 nan
nan 11 6 8 10 9 7 1 3 17 17 9 7 14 4 5 6 3 2 6 7 5 5 8 7 6 6 5 6 8 9 10 9 8 12 15 15 10 8 10 6 4 8 nan
nan 18 12 5 5 5 -2 8 17 10 10 8 9 11 18 7 4 5 2 3 6 5 8 8 8 8 9 9 9 7 7 9 10 10 9 12 13 14 12 12 9 7 7 nan
nan 14 7 4 15 13 10 3 2 1 6 11 10 7 13 11 8 2 3 4 8 14 12 8 8 8 8 9 9 9 9 8 9 10 11 8 10 15 13 12 11 9 9 nan
nan 11 8 6 7 10 6 8 8 10 7 6 9 5 3 13 10 8 7 6 8 8 9 9 8 9 10 10 9 8 10 10 10 9 10 10 10 9 10 11 13 12 11 nan
nan 12 12 14 4 2 4 13 12 5 10 8 6 6 4 7 1 2 11 12 8 7 7 8 9 9 10 10 10 11 9 8 10 8 9 9 9 11 13 10 12 12 12 nan
nan 9 6 0 7 12 12 9 5 4 3 6 5 2 2 3 11 12 10 10 9 8 7 9 10 10 10 11 9 11 13 15 11 10 8 8 9 11 12 15 12 11 12 nan
nan 8 9 7 7 5 4 7 6 6 5 3 2 6 12 15 14 10 13 9 6 5 9 10 11 10 8 8 11 12 12 11 11 11 9 11 11 10 11 14 15 14 12 nan
nan 7 9 10 9 9 11 11 10 8 9 11 9 13 15 13 9 6 6 8 9 9 9 11 11 7 9 11 12 11 11 9 8 10 10 10 12 10 8 11 17 19 16 nan
nan 6 9 8 8 13 16 18 15 17 14 10 10 10 10 7 8 11 8 9 10 9 8 9 10 11 11 10 12 12 11 11 11 13 11 12 12 10 9 9 11 16 16 nan
nan 7 7 10 12 10 7 13 12 15 14 14 14 10 8 11 9 6 17 13 8 5 7 11 10 10 11 11 11 10 10 10 13 13 14 13 16 16 14 10 9 11 13 nan
nan 8 8 12 9 9 14 18 16 10 3 15 18 13 7 9 9 9 11 12 8 9 12 11 10 12 13 11 11 10 10 11 13 12 12 11 13 16 17 15 13 13 11 nan
nan 12 11 10 9 8 14 17 11 9 10 12 18 9 3 11 12 5 -1 7 11 13 12 12 14 12 12 16 13 10 8 9 8 10 11 10 12 9 11 13 13 14 13 nan
nan 6 8 10 9 8 17 9 6 6 11 6 6 6 8 10 8 4 8 9 10 10 13 14 15 13 14 15 11 10 9 8 7 8 8 10 9 11 12 12 12 12 17 nan
nan 8 10 8 11 11 19 12 -2 7 9 1 4 11 16 9 4 9 8 10 10 9 11 15 17 16 13 13 12 12 12 9 6 8 9 9 8 11 10 9 12 16 16 nan
nan 4 5 8 15 15 2 -0 6 10 10 11 8 11 10 6 7 8 10 10 10 13 12 16 18 16 13 12 9 12 13 12 10 11 7 10 10 9 10 11 14 12 10 nan
nan 16 9 7 -1 6 11 4 1 2 10 14 11 11 10 8 8 9 10 10 10 12 12 16 18 19 14 11 8 8 8 11 14 11 11 9 8 11 11 12 12 12 14 nan
nan 13 10 11 12 13 8 4 3 10 10 9 15 11 6 7 9 10 10 11 13 11 13 13 18 23 15 9 8 6 6 8 12 13 12 14 12 10 8 11 9 15 13 nan
nan nan nan nan nan nan nan nan nan nan nan nan nan nan nan nan nan nan nan nan nan nan nan nan nan nan nan nan nan nan nan nan nan nan nan nan nan nan nan nan nan nan nan nan
CAPE
0 0 0 0 0 0 0 0 0 0 0 0 0 0 0 0 0 0 0 108 376 536 1314 2231 2087 2078 2269 2155 2057 2862 3146 4480 3478 2723 2518 2309 1752 1640 1357 1207 2485 2795 2063 2918
0 0 0 0 0 0 0 0 0 0 0 0 0 0 0 0 0 0 0 187 790 1232 1511 1942 2022 2143 2272 2455 2529 2546 2944 3835 3575 2988 2945 2797 2764 1836 1707 1287 2181 2008 2498 2480
0 0 0 0 0 0 0 0 0 0 0 0 0 0 0 0 0 0 0 58 377 836 1603 1775 2008 2214 2197 2454 2637 2969 3372 3788 3960 3941 3340 3507 3190 3174 2402 1910 1438 1891 2269 2824
0 0 0 0 0 0 0 0 0 0 0 1 0 12 7 0 0 0 6 15 226 371 512 1071 1656 1844 1897 2592 2748 3079 3734 3800 4122 4275 3550 2751 2050 2538 2610 2489 1744 1570 2804 2948
0 0 0 0 0 0 0 0 0 0 0 0 0 0 46 3 0 1 14 3 4 152 662 537 584 808 858 1013 1575 2159 4087 4698 4270 4418 4020 2935 2646 1637 2478 1431 2335 2836 2888 3039
0 0 0 0 0 0 0 0 0 0 0 2 5 0 13 41 12 9 1 1 0 44 270 775 970 1128 1128 1142 1079 1037 1974 3457 4706 4041 4230 4553 4703 3636 2394 2533 2074 2189 1800 2474
0 0 0 0 0 0 0 0 0 12 46 62 2 0 0 0 0 0 0 0 0 28 282 480 703 715 898 932 1098 877 1314 2198 3016 3914 3877 4363 4500 4361 3632 3417 2516 696 2052 1971
0 0 0 0 0 0 0 0 0 0 7 3 2 0 35 0 0 0 0 0 0 2 0 121 382 570 686 709 892 1065 1327 1876 2318 2499 3303 4506 4001 3771 3891 3836 3215 2737 2452 2440
0 0 0 0 0 0 0 0 0 0 0 0 5 17 8 0 0 0 0 0 6 20 56 62 344 519 686 799 696 1065 1250 1695 2073 2227 2706 4090 4391 4751 4099 4139 3802 2940 3099 3260
0 0 0 0 0 0 0 0 0 0 4 3 19 11 39 48 16 11 6 5 1 0 92 92 106 207 540 718 739 759 963 1277 1662 2039 2311 2746 3170 3457 4524 4052 3896 3749 3694 3800
0 0 0 0 0 0 0 0 1 0 0 0 9 13 14 4 14 0 0 0 2 0 47 200 475 539 693 686 691 828 949 1185 1322 1619 2038 2229 3011 3618 3416 3726 3686 3570 3728 3647
0 0 0 0 1 0 0 0 0 3 0 12 6 0 15 0 0 0 0 0 0 127 220 274 345 373 519 795 945 998 1123 1389 1492 1579 1698 1723 1944 2265 3069 3115 3549 3548 3590 3172
0 0 0 0 0 0 0 0 0 0 0 0 0 0 25 14 17 6 0 3 115 211 241 141 165 373 626 824 1010 1029 1100 1282 1341 1308 1391 1393 1432 1596 1890 2292 3012 2967 3248 3451
0 0 0 0 2 0 2 0 0 0 0 1 2 0 0 4 1 0 0 26 156 230 113 86 182 575 775 897 1085 1164 1373 1231 1310 1306 1413 1366 1389 1554 1608 2022 2513 2443 2925 3037
0 0 0 0 0 0 0 0 0 0 0 0 0 0 0 7 12 1 19 81 158 167 45 68 147 571 618 783 1027 1444 1365 1361 1386 1343 1336 1447 1660 1658 1559 1854 2115 2530 2849 3103
0 0 0 0 0 0 0 0 0 0 0 0 0 0 7 42 54 51 71 127 104 64 78 110 311 499 628 822 1081 1208 1185 1398 1286 1221 1324 1565 1630 1514 1069 1031 1691 2945 2549 2775
0 0 0 0 0 0 0 0 0 0 0 0 0 3 33 46 68 91 114 42 55 78 26 64 275 524 741 945 1221 1305 1159 1075 1217 1200 1330 1324 1436 1324 958 665 924 1215 1739 1299
0 1 0 0 0 0 0 0 0 0 0 0 0 11 77 29 42 84 67 44 130 121 36 89 268 458 859 1011 1312 1167 988 962 1056 1145 1007 1112 1131 1182 1187 746 650 767 906 634
0 1 0 0 0 0 0 15 9 1 13 15 38 79 51 50 54 57 113 153 236 244 262 344 420 646 939 1183 1172 931 791 626 576 653 625 560 890 994 881 919 1042 868 910 781
0 3 0 0 5 10 22 110 42 6 0 111 92 76 68 79 97 116 175 120 165 212 511 581 704 766 1098 1333 1039 499 335 388 378 428 572 779 466 824 781 787 956 1117 1122 964
32 17 12 19 13 16 17 159 68 29 171 220 126 364 161 163 430 238 191 144 208 390 452 690 918 1078 1156 1062 852 551 422 184 374 313 473 520 610 656 589 996 855 1099 1032 1058
28 57 62 88 104 72 145 126 138 301 268 208 173 171 196 500 207 234 212 296 379 459 629 681 938 992 1085 914 672 542 511 252 406 702 345 381 471 595 564 1063 1017 1081 948 416
8 13 19 63 175 227 122 90 72 26 37 69 212 234 313 565 263 252 312 410 519 611 690 947 1066 1028 949 633 519 227 253 142 409 571 492 407 446 469 740 642 794 1181 918 468
67 121 75 92 42 61 106 200 73 94 186 160 203 458 338 326 455 474 526 570 622 802 846 1022 1049 890 689 396 147 91 55 72 202 380 482 349 456 263 866 605 137 734 1062 879
73 48 145 179 194 169 181 161 205 155 200 294 676 763 353 472 548 537 574 677 697 883 945 1116 1081 969 539 351 124 43 91 126 141 344 145 225 147 266 294 149 17 4 0 0
86 93 65 96 156 135 131 114 90 176 183 319 506 519 531 550 666 609 637 741 777 846 797 1022 967 361 113 155 93 79 152 129 184 261 76 58 44 262 53 129 4 0 0 1